Madison, MN

12:15 PM CST on December 05, 2019 (GMT -0600)
Madison-Lac Qui Parle County

Weather History for KDXX - October, 2019

Change the Weather History Date:

Sunday, October 27, 2019

  Actual Average (KAQP) Record (KAQP)
Temperature  
Mean Temperature 38 °F -  
Max Temperature 44 °F 49 °F 78 °F (1999)
Min Temperature 33 °F 31 °F 15 °F (1997)
Degree Days  
Heating Degree Days 26    
Moisture  
Dew Point 30 °F    
Average Humidity 70    
Maximum Humidity 93    
Minimum Humidity 52    
Precipitation  
Precipitation 0.01 in - - ()
Sea Level Pressure  
Sea Level Pressure 30.00 in    
Wind  
Wind Speed 16 mph (NW)    
Max Wind Speed 22 mph    
Max Gust Speed 30 mph    
Visibility 10 miles    
Events Rain    
Averages and records for this station are not official NWS values.
T = Trace of Precipitation, MM = Missing Value Source: NWS Daily Summary

Daily Weather History Graph

Daily Weather History Graph

Search for Another Location

Airport or City:

Astronomy

Oct. 27, 2019 Rise Set
Actual Time 7:56 AM CDT 6:20 PM CDT
Civil Twilight 7:25 AM CDT 6:50 PM CDT
Nautical Twilight 6:51 AM CDT 7:25 PM CDT
Astronomical Twilight 6:17 AM CDT 7:58 PM CDT
Moon 7:01 AM CDT (10/27) 6:33 PM CDT (10/27)
Length of Visible Light 11h 24m
Length of Day
10h 24m
Waning Crescent, 0% of the Moon is Illuminated
Oct 27
Waning Crescent
Oct 27
New
Nov 4
First Quarter
Nov 12
Full
Nov 19
Last Quarter

Hourly Weather History & Observations

Time (CDT) Temp. Windchill Dew Point Humidity Pressure Visibility Wind Dir Wind Speed Gust Speed Precip Events Conditions
12:16 AM 44.6 °F 37.2 °F 35.6 °F 71% 29.76 in 10.0 mi North 17.3 mph 29.9 mph N/A   Overcast
12:35 AM 44.6 °F 36.6 °F 35.6 °F 71% 29.77 in 10.0 mi NNW 19.6 mph 25.3 mph N/A   Overcast
12:36 AM 44.6 °F 36.9 °F 35.6 °F 71% 29.77 in 10.0 mi NNW 18.4 mph 23.0 mph N/A   Overcast
12:55 AM 44.6 °F 37.8 °F 35.6 °F 71% 29.76 in 10.0 mi NNW 15.0 mph 21.9 mph N/A   Overcast
1:18 AM 44.6 °F 36.1 °F 35.6 °F 71% 29.79 in 10.0 mi NW 21.9 mph 28.8 mph N/A   Overcast
1:36 AM 42.8 °F 33.8 °F 35.6 °F 76% 29.81 in 10.0 mi NW 21.9 mph 27.6 mph N/A   Overcast
1:55 AM 42.8 °F 34.0 °F 35.6 °F 76% 29.81 in 10.0 mi NW 20.7 mph 29.9 mph N/A   Overcast
1:56 AM 42.8 °F 33.8 °F 35.6 °F 76% 29.82 in 10.0 mi NW 21.9 mph 29.9 mph N/A   Overcast
2:15 AM 42.8 °F 34.8 °F 35.6 °F 76% 29.84 in 10.0 mi NW 17.3 mph 28.8 mph N/A   Overcast
2:16 AM 42.8 °F 34.8 °F 35.6 °F 76% 29.84 in 10.0 mi NW 17.3 mph 28.8 mph N/A   Overcast
2:35 AM 42.8 °F 34.0 °F 35.6 °F 76% 29.85 in 10.0 mi NW 20.7 mph 24.2 mph N/A   Overcast
2:40 AM 42.8 °F 35.1 °F 35.6 °F 76% 29.87 in 10.0 mi NW 16.1 mph 24.2 mph N/A   Overcast
2:57 AM 42.8 °F 34.8 °F 35.6 °F 76% 29.86 in 10.0 mi NW 17.3 mph - N/A   Overcast
3:15 AM 42.8 °F 34.5 °F 35.6 °F 76% 29.88 in 10.0 mi NW 18.4 mph - N/A   Overcast
3:35 AM 42.8 °F 35.1 °F 35.6 °F 76% 29.87 in 10.0 mi NNW 16.1 mph 24.2 mph N/A   Overcast
3:55 AM 42.8 °F 34.0 °F 35.6 °F 76% 29.88 in 10.0 mi NNW 20.7 mph 24.2 mph N/A   Overcast
3:56 AM 42.8 °F 34.0 °F 35.6 °F 76% 29.88 in 10.0 mi NNW 20.7 mph 24.2 mph N/A   Overcast
4:19 AM 42.8 °F 35.1 °F 35.6 °F 76% 29.88 in 10.0 mi NNW 16.1 mph - N/A   Overcast
4:36 AM 42.8 °F 35.1 °F 35.6 °F 76% 29.88 in 10.0 mi NNW 16.1 mph - N/A   Overcast
4:56 AM 42.8 °F 35.1 °F 35.6 °F 76% 29.88 in 10.0 mi NNW 16.1 mph 21.9 mph N/A   Scattered Clouds
5:15 AM 42.8 °F 35.1 °F 35.6 °F 76% 29.91 in 10.0 mi NW 16.1 mph 24.2 mph N/A   Mostly Cloudy
5:16 AM 42.8 °F 34.8 °F 35.6 °F 76% 29.91 in 10.0 mi NNW 17.3 mph 20.7 mph N/A   Mostly Cloudy
5:35 AM 42.8 °F 35.1 °F 35.6 °F 76% 29.89 in 10.0 mi NNW 16.1 mph 24.2 mph N/A   Overcast
5:39 AM 42.8 °F 35.1 °F 35.6 °F 76% 29.89 in 10.0 mi NNW 16.1 mph - N/A   Overcast
5:57 AM 42.8 °F 35.4 °F 35.6 °F 76% 29.90 in 10.0 mi NNW 15.0 mph 23.0 mph N/A   Light Drizzle
6:35 AM 41.0 °F 32.5 °F 35.6 °F 81% 29.90 in 10.0 mi NNW 17.3 mph 21.9 mph N/A   Overcast
6:36 AM 41.0 °F 32.8 °F 35.6 °F 81% 29.90 in 10.0 mi NNW 16.1 mph 21.9 mph N/A   Overcast
6:55 AM 41.0 °F 32.8 °F 35.6 °F 81% 29.92 in 10.0 mi NNW 16.1 mph - N/A   Light Drizzle
6:56 AM 41.0 °F 33.1 °F 35.6 °F 81% 29.92 in 10.0 mi NW 15.0 mph - N/A   Light Drizzle
7:18 AM 41.0 °F 33.9 °F 33.8 °F 76% 29.94 in 10.0 mi NW 12.7 mph - N/A   Overcast
7:36 AM 41.0 °F 33.5 °F 33.8 °F 76% 29.95 in 10.0 mi NW 13.8 mph - N/A   Overcast
7:55 AM 41.0 °F 33.1 °F 33.8 °F 76% 29.96 in 10.0 mi NW 15.0 mph 18.4 mph N/A   Overcast
7:56 AM 41.0 °F 33.9 °F 33.8 °F 76% 29.96 in 10.0 mi NW 12.7 mph 18.4 mph N/A   Overcast
8:15 AM 41.0 °F 33.5 °F 33.8 °F 76% 29.98 in 10.0 mi NW 13.8 mph - N/A   Light Drizzle
8:16 AM 41.0 °F 33.1 °F 33.8 °F 76% 29.98 in 10.0 mi NW 15.0 mph 19.6 mph N/A   Light Drizzle
8:35 AM 39.2 °F 30.8 °F 33.8 °F 81% 29.99 in 10.0 mi NW 15.0 mph 21.9 mph N/A Rain Light Rain
8:40 AM 39.2 °F 30.5 °F 35.6 °F 87% 29.98 in 10.0 mi NW 16.1 mph 21.9 mph N/A Rain Light Rain
8:57 AM 39.2 °F 31.6 °F 35.6 °F 87% 29.98 in 10.0 mi NNW 12.7 mph 21.9 mph N/A Rain Light Rain
9:15 AM 37.4 °F 29.8 °F 35.6 °F 93% 29.99 in 10.0 mi NW 11.5 mph 16.1 mph N/A Rain Light Rain
9:35 AM 39.2 °F 32.0 °F 35.6 °F 87% 30.01 in 10.0 mi NW 11.5 mph - N/A Rain Light Rain
9:55 AM 39.2 °F 31.2 °F 35.6 °F 87% 30.01 in 10.0 mi NW 13.8 mph - N/A Rain Light Rain
9:56 AM 39.2 °F 31.2 °F 35.6 °F 87% 30.02 in 10.0 mi NW 13.8 mph - N/A Rain Light Rain
10:18 AM 39.2 °F 30.5 °F 35.6 °F 87% 30.02 in 10.0 mi NW 16.1 mph - 0.01 in Rain Light Rain
10:37 AM 39.2 °F 31.2 °F 35.6 °F 87% 30.02 in 10.0 mi WNW 13.8 mph - 0.01 in Rain Light Rain
10:56 AM 39.2 °F 32.0 °F 35.6 °F 87% 30.03 in 10.0 mi NW 11.5 mph - N/A   Overcast
11:15 AM 39.2 °F 31.2 °F 33.8 °F 81% 30.02 in 10.0 mi NNW 13.8 mph - N/A   Overcast
11:16 AM 39.2 °F 31.2 °F 33.8 °F 81% 30.02 in 10.0 mi NW 13.8 mph - N/A   Overcast
11:35 AM 39.2 °F 29.8 °F 33.8 °F 81% 30.02 in 10.0 mi NNW 18.4 mph - N/A   Overcast
11:57 AM 39.2 °F 30.2 °F 33.8 °F 81% 30.04 in 10.0 mi NW 17.3 mph 20.7 mph N/A   Overcast
12:16 PM 39.2 °F 30.5 °F 32.0 °F 75% 30.05 in 10.0 mi NW 16.1 mph 23.0 mph N/A   Overcast
12:35 PM 39.2 °F 30.8 °F 30.2 °F 70% 30.05 in 10.0 mi NW 15.0 mph 24.2 mph N/A   Overcast
12:36 PM 39.2 °F 31.2 °F 30.2 °F 70% 30.05 in 10.0 mi NW 13.8 mph 24.2 mph N/A   Overcast
12:55 PM 39.2 °F 30.5 °F 30.2 °F 70% 30.05 in 10.0 mi NW 16.1 mph - N/A   Overcast
12:56 PM 39.2 °F 30.5 °F 30.2 °F 70% 30.05 in 10.0 mi NW 16.1 mph - N/A   Overcast
1:35 PM 39.2 °F 30.5 °F 30.2 °F 70% 30.05 in 10.0 mi NW 16.1 mph 24.2 mph N/A Rain Light Rain
1:55 PM 39.2 °F 30.2 °F 28.4 °F 65% 30.05 in 10.0 mi NW 17.3 mph - N/A   Overcast
1:56 PM 39.2 °F 30.2 °F 28.4 °F 65% 30.05 in 10.0 mi NW 17.3 mph 24.2 mph N/A   Overcast
2:15 PM 39.2 °F 30.2 °F 28.4 °F 65% 30.05 in 10.0 mi NNW 17.3 mph 20.7 mph N/A   Overcast
2:16 PM 39.2 °F 30.2 °F 28.4 °F 65% 30.06 in 10.0 mi NNW 17.3 mph - N/A   Overcast
2:38 PM 39.2 °F 30.2 °F 28.4 °F 65% 30.06 in 10.0 mi NW 17.3 mph 25.3 mph N/A   Overcast
2:57 PM 39.2 °F 30.5 °F 28.4 °F 65% 30.06 in 10.0 mi NW 16.1 mph 25.3 mph N/A   Overcast
3:16 PM 39.2 °F 30.2 °F 28.4 °F 65% 30.06 in 10.0 mi NNW 17.3 mph 23.0 mph N/A   Overcast
3:35 PM 39.2 °F 30.2 °F 26.6 °F 61% 30.06 in 10.0 mi NW 17.3 mph 21.9 mph N/A   Overcast
3:36 PM 39.2 °F 30.2 °F 26.6 °F 61% 30.07 in 10.0 mi NW 17.3 mph 21.9 mph N/A   Overcast
3:55 PM 39.2 °F 31.6 °F 28.4 °F 65% 30.06 in 10.0 mi NW 12.7 mph 18.4 mph N/A   Overcast
4:17 PM 39.2 °F 31.6 °F 26.6 °F 61% 30.07 in 10.0 mi NW 12.7 mph 18.4 mph N/A   Overcast
4:36 PM 39.2 °F 31.2 °F 26.6 °F 61% 30.08 in 10.0 mi NW 13.8 mph 19.6 mph N/A   Overcast
4:55 PM 37.4 °F 28.2 °F 26.6 °F 65% 30.08 in 10.0 mi NW 16.1 mph 20.7 mph N/A   Overcast
4:56 PM 37.4 °F 28.5 °F 26.6 °F 65% 30.08 in 10.0 mi NW 15.0 mph 20.7 mph N/A   Overcast
5:15 PM 37.4 °F 28.9 °F 26.6 °F 65% 30.08 in 10.0 mi WNW 13.8 mph 18.4 mph N/A   Overcast
5:16 PM 37.4 °F 29.3 °F 26.6 °F 65% 30.08 in 10.0 mi NW 12.7 mph 18.4 mph N/A   Overcast
5:39 PM 37.4 °F 30.3 °F 24.8 °F 60% 30.08 in 10.0 mi NW 10.4 mph - N/A   Overcast
5:56 PM 37.4 °F 30.3 °F 23.0 °F 56% 30.08 in 10.0 mi NW 10.4 mph 18.4 mph N/A   Mostly Cloudy
6:15 PM 37.4 °F 30.8 °F 23.0 °F 56% 30.07 in 10.0 mi NW 9.2 mph - N/A   Overcast
6:16 PM 37.4 °F 30.3 °F 23.0 °F 56% 30.07 in 10.0 mi NW 10.4 mph - N/A   Overcast
6:58 PM 35.6 °F 26.6 °F 21.2 °F 56% 30.09 in 10.0 mi NW 13.8 mph 20.7 mph N/A   Mostly Cloudy
7:17 PM 35.6 °F 27.1 °F 23.0 °F 60% 30.09 in 10.0 mi NW 12.7 mph 19.6 mph N/A   Scattered Clouds
7:36 PM 35.6 °F 28.6 °F 23.0 °F 60% 30.09 in 10.0 mi NW 9.2 mph - N/A   Clear
7:55 PM 35.6 °F 28.0 °F 23.0 °F 60% 30.09 in 10.0 mi NW 10.4 mph - N/A   Clear
7:56 PM 35.6 °F 28.0 °F 23.0 °F 60% 30.09 in 10.0 mi NW 10.4 mph - N/A   Clear
8:15 PM 35.6 °F 28.0 °F 21.2 °F 56% 30.11 in 10.0 mi NW 10.4 mph - N/A   Scattered Clouds
8:20 PM 35.6 °F 27.1 °F 21.2 °F 56% 30.11 in 10.0 mi NW 12.7 mph - N/A   Scattered Clouds
8:37 PM 35.6 °F 27.1 °F 21.2 °F 56% 30.11 in 10.0 mi NW 12.7 mph - N/A   Clear
8:56 PM 33.8 °F 25.8 °F 21.2 °F 60% 30.12 in 10.0 mi NW 10.4 mph - N/A   Clear
9:15 PM 33.8 °F 27.0 °F 23.0 °F 65% 30.12 in 10.0 mi NW 8.1 mph - N/A   Clear
9:16 PM 33.8 °F 26.4 °F 23.0 °F 65% 30.12 in 10.0 mi NW 9.2 mph - N/A   Clear
9:35 PM 33.8 °F 27.0 °F 23.0 °F 65% 30.13 in 10.0 mi NW 8.1 mph - N/A   Mostly Cloudy
9:36 PM 33.8 °F 27.7 °F 23.0 °F 65% 30.13 in 10.0 mi NW 6.9 mph - N/A   Mostly Cloudy
9:58 PM 33.8 °F 27.0 °F 23.0 °F 65% 30.13 in 10.0 mi NW 8.1 mph - N/A   Overcast
10:17 PM 33.8 °F 27.0 °F 23.0 °F 65% 30.13 in 10.0 mi WNW 8.1 mph - N/A   Overcast
10:36 PM 33.8 °F 25.8 °F 21.2 °F 60% 30.14 in 10.0 mi WNW 10.4 mph - N/A   Overcast
10:55 PM 33.8 °F 23.9 °F 19.4 °F 56% 30.14 in 10.0 mi NW 15.0 mph - N/A   Overcast
10:56 PM 33.8 °F 23.5 °F 19.4 °F 56% 30.14 in 10.0 mi NW 16.1 mph 23.0 mph N/A   Overcast
11:15 PM 33.8 °F 24.8 °F 19.4 °F 56% 30.14 in 10.0 mi NW 12.7 mph 17.3 mph N/A   Overcast
11:19 PM 33.8 °F 23.9 °F 19.4 °F 56% 30.14 in 10.0 mi NW 15.0 mph 21.9 mph N/A   Overcast
11:37 PM 33.8 °F 25.3 °F 19.4 °F 56% 30.15 in 10.0 mi WNW 11.5 mph 20.7 mph N/A   Overcast
11:56 PM 33.8 °F 24.3 °F 17.6 °F 52% 30.14 in 10.0 mi WNW 13.8 mph - N/A   Overcast